DW7816 Weather Reports


Display with metric or nautical units.
time (UTC)temp
F
wind
direction
speed
MPH
gust
MPH
rain 1hr
in
rain 24hr
in
rain mn
in
humidity
%
barometer
mb
20260503032146 43 36 0.0 0.0 0.00 0.00 0.00 90 1021.1
20260503031142 43 36 0.0 0.0 0.00 0.00 0.00 89 1021.0
20260503030135 44 36 0.0 0.0 0.00 0.00 0.00 88 1020.9
20260503025144 44 36 0.0 0.0 0.00 0.00 0.00 87 1020.8
20260503024111 45 36 0.0 0.0 0.00 0.00 0.00 87 1020.8
20260503023134 45 36 0.0 0.0 0.00 0.00 0.00 85 1020.8
20260503022104 46 36 0.0 0.0 0.00 0.00 0.00 84 1020.6
20260503021117 47 36 0.0 0.0 0.00 0.00 0.00 82 1020.5
20260503020120 48 36 0.0 0.0 0.00 0.00 0.00 80 1020.4
20260503015109 49 36 0.0 0.0 0.00 0.00 0.00 79 1020.4
20260503014035 50 36 0.0 0.0 0.00 0.00 0.00 77 1020.4
20260503013056 51 36 0.0 0.0 0.00 0.00 0.00 74 1020.3
20260503012114 52 36 0.0 0.0 0.00 0.00 0.00 71 1020.2
20260503011051 53 36 0.0 0.0 0.00 0.00 0.00 69 1020.1
20260503003824 57 36 0.0 1.0 0.00 0.00 0.00 62 1019.9
20260503002819 58 49 1.0 4.0 0.00 0.00 0.00 57 1019.8
20260503001757 58 31 0.0 4.0 0.00 0.00 0.00 56 1019.7
20260503000731 59 48 1.0 5.0 0.00 0.00 0.00 55 1019.8
20260502235715 59 43 0.0 4.0 0.00 0.00 0.00 53 1019.7
20260502234649 60 131 3.0 8.0 0.00 0.00 0.00 51 1019.8
20260502233639 61 52 3.0 7.0 0.00 0.00 0.00 51 1019.7
20260502232645 62 39 1.0 8.0 0.00 0.00 0.00 48 1019.8
20260502231630 62 39 2.0 8.0 0.00 0.00 0.00 50 1019.9
20260502230621 63 68 2.0 6.0 0.00 0.00 0.00 49 1019.9
20260502225611 62 46 3.0 6.0 0.00 0.00 0.00 47 1019.9
20260502224620 62 9 3.0 8.0 0.00 0.00 0.00 48 1019.9
20260502222511 62 340 3.0 8.0 0.00 0.00 0.00 48 1019.8
20260502221523 63 44 2.0 7.0 0.00 0.00 0.00 50 1019.7
20260502220501 63 34 3.0 11.0 0.00 0.00 0.00 54 1019.7
20260502214324 62 49 2.0 7.0 0.00 0.00 0.00 49 1019.8
20260502212205 63 61 3.0 9.0 0.00 0.00 0.00 49 1019.8
20260502211204 63 52 4.0 10.0 0.00 0.00 0.00 52 1019.9
20260502205040 63 95 2.0 11.0 0.00 0.00 0.00 52 1020.1
20260502204023 63 76 3.0 12.0 0.00 0.00 0.00 56 1020.1
20260502203037 62 163 4.0 12.0 0.00 0.00 0.00 51 1020.3
20260502202013 62 38 3.0 10.0 0.00 0.00 0.00 50 1020.4
20260502201016 61 42 3.0 9.0 0.00 0.00 0.00 52 1020.4
20260502200012 63 69 3.0 12.0 0.00 0.00 0.00 54 1020.5
20260502195011 62 65 4.0 12.0 0.00 0.00 0.00 51 1020.7
20260502194005 62 5 4.0 10.0 0.00 0.00 0.00 53 1020.7
20260502193022 61 53 5.0 11.0 0.00 0.00 0.00 50 1020.7
20260502192001 62 64 3.0 11.0 0.00 0.00 0.00 53 1020.7
20260502190943 60 19 4.0 11.0 0.00 0.00 0.00 49 1020.8
20260502185948 59 266 4.0 11.0 0.00 0.00 0.00 52 1020.9
20260502181731 61 107 4.0 14.0 0.00 0.00 0.00 57 1020.9
20260502180730 59 81 4.0 11.0 0.00 0.00 0.00 52 1021.0
20260502163651 59 74 5.0 14.0 0.00 0.00 0.00 60 1021.5
20260502162632 59 325 5.0 13.0 0.00 0.00 0.00 59 1021.3
20260502161644 59 12 4.0 10.0 0.00 0.00 0.00 56 1021.3
20260502160616 58 35 5.0 12.0 0.00 0.00 0.00 62 1021.3
20260502151452 56 40 5.0 10.0 0.00 0.00 0.00 64 1021.5
20260502150504 56 99 5.0 13.0 0.00 0.00 0.00 62 1021.4
20260502122627 42 0 0.0 0.0 0.00 0.00 0.00 99 1020.4
20260502120523 39 0 0.0 0.0 0.00 0.00 0.00 98 1020.2
20260502115501 38 0 0.0 0.0 0.00 0.00 0.00 97 1020.2
20260502114431 38 0 0.0 0.0 0.00 0.00 0.00 97 1019.9
20260502113417 38 342 0.0 0.0 0.00 0.00 0.00 97 1019.8
20260502112359 37 342 0.0 0.0 0.00 0.00 0.00 97 1019.8
20260502111356 37 342 0.0 0.0 0.00 0.00 0.00 97 1019.8
20260502110324 37 342 0.0 0.0 0.00 0.00 0.00 97 1019.7
20260502104158 37 342 0.0 0.0 0.00 0.00 0.00 97 1019.4
20260502103156 37 342 0.0 0.0 0.00 0.00 0.00 96 1019.4
20260502102154 37 342 0.0 0.0 0.00 0.00 0.00 96 1019.2
20260502101137 37 342 0.0 0.0 0.00 0.00 0.00 96 1019.2
20260502100139 37 342 0.0 0.0 0.00 0.00 0.00 96 1019.0
20260502071420 39 276 0.0 0.0 0.00 0.00 0.00 95 1018.6
20260502070422 39 275 0.0 0.0 0.00 0.00 0.00 95 1018.7
20260502064300 40 275 0.0 0.0 0.00 0.00 0.00 94 1018.8
20260502063258 40 275 0.0 0.0 0.00 0.00 0.00 94 1018.8
20260502062319 40 275 0.0 0.0 0.00 0.00 0.00 94 1018.9
20260502061246 41 275 0.0 0.0 0.00 0.00 0.00 94 1019.0
20260502060214 41 275 0.0 0.0 0.00 0.00 0.00 94 1019.0
20260502055152 41 276 0.0 0.0 0.00 0.00 0.00 94 1019.0
20260502054136 41 276 0.0 0.0 0.00 0.00 0.00 95 1018.9
20260502053111 41 276 0.0 0.0 0.00 0.00 0.00 95 1018.9
20260502052113 41 275 0.0 0.0 0.00 0.00 0.00 94 1018.8
20260502051134 41 275 0.0 0.0 0.00 0.00 0.00 94 1018.7
20260502050133 41 276 0.0 0.0 0.00 0.00 0.00 93 1018.8
20260502045130 41 275 0.0 0.0 0.00 0.00 0.00 93 1018.8
20260502044118 42 276 0.0 0.0 0.00 0.00 0.00 92 1018.8
20260502043113 42 275 0.0 0.0 0.00 0.00 0.00 92 1018.7
20260502042120 42 275 0.0 0.0 0.00 0.00 0.00 91 1018.8
20260502040001 43 276 0.0 0.0 0.00 0.00 0.00 91 1018.8
20260502035012 43 276 0.0 0.0 0.00 0.00 0.00 90 1019.0
20260502032900 44 276 0.0 0.0 0.00 0.00 0.00 89 1019.0